Vorticity
8 8 11 9 6 4 7 6 6 7 7 8 10 7 7 6 1 0 2 6 5 3 5 8 9 6 5 5 7 8 7 6 5 3 4 8 10 10 11 4 4 6 8
6 4 9 12 5 4 8 4 6 6 7 7 8 10 7 4 5 -0 3 2 6 6 5 3 3 4 6 7 6 5 4 2 2 6 9 10 10 9 4 3 5 9 11
6 5 7 8 9 4 6 7 3 6 7 5 7 7 12 6 3 3 1 2 2 5 6 5 6 5 4 4 3 3 4 6 9 10 7 8 8 5 2 5 7 9 10
12 8 4 9 9 4 5 6 6 3 4 7 5 6 8 10 8 3 3 9 2 -2 1 6 7 6 6 8 8 8 8 9 8 8 8 7 6 2 3 7 10 10 8
9 7 6 5 8 8 4 4 9 5 6 8 6 5 5 6 6 8 6 6 8 10 5 -2 2 3 2 2 3 4 8 10 10 9 7 5 5 1 2 9 10 10 8
9 12 -1 7 8 7 6 5 4 10 2 7 5 6 8 6 9 7 6 3 5 9 12 9 8 4 4 4 3 3 4 -0 -1 -2 1 3 3 3 6 11 10 9 7
6 11 8 5 7 10 8 6 27 1 32 12 7 5 3 7 8 9 7 6 9 8 9 12 13 13 10 8 7 6 6 5 3 3 1 2 1 4 8 9 10 10 6
13 4 10 7 5 6 11 3 -6 6 7 14 12 6 2 3 9 8 7 5 6 5 6 6 7 9 10 12 10 8 7 7 7 5 5 4 8 4 8 10 10 9 5
18 10 8 19 8 5 5 8 3 4 6 -27 -20 -7 16 3 9 9 9 5 3 5 5 5 6 6 7 8 11 12 11 9 6 6 7 5 6 8 10 12 10 9 7
16 18 6 -4 19 13 0 10 8 4 9 41 -32 -13 29 3 9 -2 8 8 4 4 5 5 5 5 6 7 8 12 12 12 11 10 9 8 9 10 11 10 10 8 7
-11 15 12 5 8 7 8 4 8 9 8 -22 14 17 12 -3 19 -4 17 4 6 4 4 6 5 5 6 7 7 9 11 13 15 15 13 12 13 14 11 9 8 8 7
16 17 20 4 8 5 2 10 3 8 -9 4 44 -45 18 -10 -40 20 19 -2 1 8 -2 6 -6 8 5 5 6 6 12 8 9 11 11 14 13 10 9 9 6 7 8
-6 3 11 21 -3 15 -24 17 8 3 26 -22 56 12 16 33 63 -25 33 -17 8 27 -22 2 6 4 -0 4 6 7 11 6 7 8 7 9 11 9 9 7 6 6 6
14 19 9 7 18 -1 15 8 7 -7 21 6 -34 -18 5 -5 30 7 34 4 -10 21 2 33 -24 4 8 3 6 5 7 10 8 9 9 9 10 7 7 6 6 6 5
-2 4 9 10 9 15 -3 13 8 17 -7 0 16 10 25 18 -13 -1 -4 35 -8 35 -30 -8 40 5 7 4 3 8 -0 6 9 10 8 6 7 6 6 6 6 5 4
21 -10 18 20 6 10 19 -10 15 17 -12 21 33 -9 -11 -5 23 24 3 -3 34 23 3 19 38 -0 10 17 1 19 -52 6 5 8 7 6 5 5 5 6 5 4 4
40 -14 -1 27 16 4 16 21 30 16 17 42 -8 21 -21 3 -4 53 69 -27 27 -30 62 19 -6 6 21 14 6 17 -3 12 8 4 10 7 4 5 5 5 5 5 5
8 29 5 6 22 15 0 4 -3 -4 19 8 18 14 3 10 -20 -29 18 27 12 17 2 -40 25 1 34 10 14 22 0 16 15 3 8 8 3 2 3 3 5 5 5
13 1 17 12 26 16 8 24 13 10 -3 -17 -7 32 -3 11 14 19 -44 -19 13 17 30 -4 -8 -2 -24 48 2 -6 9 3 25 11 -3 1 7 8 2 3 6 6 5
18 22 3 13 22 8 19 -4 2 10 15 -1 2 24 18 16 8 1 -23 27 30 -38 6 61 25 -35 52 -21 -13 -36 8 5 -14 23 27 19 -1 -13 7 11 2 8 6
3 19 30 1 6 17 10 23 8 6 19 14 25 -15 1 27 3 10 -15 -1 -5 5 -2 -10 -20 2 -54 -8 -24 8 5 -24 17 -8 6 22 19 14 8 -10 15 8 0
14 7 8 14 17 -1 13 10 14 11 1 -7 20 19 -3 -2 17 17 38 -26 25 30 -12 29 -33 2 -1 -7 -11 27 1 -26 8 -5 4 4 6 14 5 22 -6 7 16
8 13 10 4 8 10 17 11 15 16 24 9 -2 18 5 12 -7 10 0 16 -19 7 43 35 19 -36 19 -28 -12 17 24 -16 11 29 13 12 37 38 27 18 34 3 7
8 5 10 17 10 8 8 10 25 14 13 25 -0 -2 0 -2 18 -4 0 6 19 1 10 9 24 0 7 7 18 35 3 9 20 22 23 13 -2 8 6 4 0 12 12
31 20 10 8 9 20 13 4 -3 -2 11 4 21 16 2 10 19 16 -3 -17 -3 8 -24 -4 6 28 2 35 19 -14 -31 12 32 5 -0 -16 1 1 13 13 17 10 7
12 28 29 20 12 10 21 28 29 11 9 12 7 13 21 13 -11 1 0 18 24 18 -1 1 -14 -23 5 5 34 6 5 36 12 -1 -5 18 7 21 12 1 -0 16 -5
Height
5677 5690 5698 5710 5721 5733 5742 5751 5757 5765 5771 5779 5786 5793 5802 5808 5812 5819 5824 5829 5834 5838 5844 5848 5852 5857 5860 5863 5868 5871 5874 5877 5880 5882 5883 5885 5886 5887 5888 5889 5890 5890 5891
5663 5678 5687 5697 5709 5721 5732 5740 5748 5756 5764 5773 5781 5786 5793 5800 5806 5812 5817 5823 5829 5834 5838 5842 5846 5851 5855 5859 5863 5866 5869 5873 5875 5877 5879 5881 5883 5883 5884 5885 5886 5887 5888
5649 5663 5675 5686 5698 5710 5717 5728 5738 5747 5755 5764 5771 5776 5783 5790 5797 5803 5811 5817 5822 5828 5832 5837 5841 5845 5849 5853 5857 5861 5864 5867 5870 5872 5875 5877 5878 5880 5881 5882 5882 5884 5885
5637 5650 5662 5674 5687 5699 5709 5719 5727 5735 5745 5754 5762 5770 5779 5787 5794 5799 5805 5811 5816 5822 5827 5830 5835 5839 5843 5847 5851 5855 5858 5861 5865 5867 5870 5872 5874 5875 5877 5877 5878 5880 5881
5624 5637 5651 5662 5675 5688 5698 5709 5719 5724 5736 5746 5754 5761 5769 5776 5782 5790 5796 5802 5808 5813 5819 5824 5828 5832 5837 5841 5845 5849 5852 5855 5858 5861 5864 5866 5868 5870 5872 5873 5874 5876 5877
5612 5624 5640 5652 5663 5677 5689 5701 5712 5718 5726 5737 5743 5751 5760 5767 5775 5782 5788 5794 5800 5806 5812 5816 5821 5825 5829 5834 5838 5842 5846 5849 5852 5855 5858 5860 5863 5865 5867 5868 5870 5872 5873
5601 5613 5626 5641 5653 5665 5677 5690 5694 5712 5703 5717 5734 5741 5750 5757 5766 5774 5780 5786 5793 5799 5804 5810 5814 5818 5822 5826 5829 5834 5838 5841 5844 5848 5851 5853 5856 5859 5861 5863 5865 5867 5868
5592 5603 5615 5629 5642 5653 5665 5677 5685 5700 5698 5708 5718 5729 5740 5748 5756 5764 5771 5778 5784 5789 5794 5799 5804 5809 5813 5817 5821 5825 5829 5832 5836 5840 5843 5845 5849 5852 5854 5856 5859 5861 5863
5582 5595 5606 5619 5631 5643 5655 5666 5676 5686 5694 5691 5706 5716 5729 5737 5744 5752 5762 5769 5774 5780 5785 5790 5795 5799 5803 5808 5812 5816 5820 5822 5826 5831 5834 5838 5841 5844 5848 5850 5852 5855 5857
5571 5585 5596 5608 5618 5632 5640 5653 5664 5673 5683 5681 5701 5711 5710 5728 5735 5742 5751 5760 5766 5771 5776 5781 5787 5791 5795 5800 5804 5808 5811 5813 5818 5822 5826 5829 5833 5837 5841 5844 5846 5848 5850
5561 5575 5585 5596 5609 5620 5631 5642 5651 5660 5671 5684 5691 5689 5710 5719 5720 5725 5740 5749 5756 5761 5766 5772 5777 5782 5787 5791 5797 5800 5802 5805 5809 5813 5817 5820 5825 5828 5832 5836 5839 5841 5844
5551 5564 5576 5586 5597 5610 5622 5629 5638 5647 5663 5672 5677 5688 5696 5696 5716 5724 5725 5734 5743 5748 5753 5760 5767 5772 5777 5782 5787 5791 5795 5798 5801 5805 5808 5812 5817 5821 5824 5828 5831 5834 5837
5541 5553 5565 5576 5588 5598 5607 5619 5628 5637 5650 5661 5667 5673 5689 5692 5700 5709 5709 5728 5726 5733 5742 5752 5758 5763 5769 5772 5778 5783 5787 5790 5793 5797 5801 5804 5809 5813 5817 5820 5824 5827 5830
5530 5541 5554 5565 5577 5587 5596 5608 5619 5630 5640 5646 5654 5664 5674 5684 5693 5699 5706 5716 5721 5721 5728 5736 5745 5752 5758 5763 5767 5772 5777 5783 5786 5789 5793 5797 5801 5805 5809 5814 5817 5820 5823
5519 5529 5541 5553 5564 5575 5585 5595 5607 5617 5628 5638 5644 5654 5663 5675 5682 5688 5689 5703 5708 5714 5720 5726 5733 5738 5746 5751 5756 5760 5766 5772 5777 5781 5784 5788 5792 5796 5800 5805 5808 5811 5814
5510 5521 5531 5541 5552 5562 5572 5583 5593 5604 5615 5623 5634 5643 5653 5661 5671 5677 5684 5691 5696 5699 5708 5715 5719 5726 5735 5740 5745 5749 5753 5763 5767 5772 5775 5779 5783 5787 5791 5795 5798 5801 5804
5500 5511 5521 5531 5540 5550 5561 5571 5581 5591 5601 5610 5622 5630 5642 5649 5658 5664 5670 5681 5686 5693 5696 5703 5710 5715 5721 5728 5734 5739 5742 5750 5757 5761 5765 5769 5773 5777 5780 5783 5787 5791 5794
5488 5498 5510 5520 5529 5538 5547 5558 5568 5579 5589 5599 5609 5620 5628 5638 5645 5657 5662 5669 5675 5682 5689 5693 5700 5706 5708 5717 5723 5726 5733 5738 5741 5748 5754 5758 5762 5766 5770 5773 5777 5781 5783
5477 5488 5497 5506 5516 5525 5534 5544 5555 5565 5577 5584 5594 5603 5614 5623 5632 5642 5649 5654 5661 5669 5673 5683 5691 5699 5704 5703 5708 5713 5719 5724 5729 5734 5739 5745 5749 5754 5758 5763 5766 5769 5772
5469 5477 5486 5495 5503 5511 5520 5530 5540 5551 5561 5570 5580 5590 5600 5609 5617 5628 5635 5643 5650 5655 5661 5667 5674 5676 5683 5692 5691 5698 5705 5711 5716 5719 5725 5730 5734 5739 5745 5749 5752 5756 5759
5457 5466 5474 5483 5491 5499 5507 5516 5526 5535 5546 5555 5564 5574 5584 5593 5601 5610 5620 5627 5633 5638 5646 5655 5661 5667 5670 5677 5678 5684 5689 5696 5701 5705 5712 5717 5721 5724 5728 5733 5737 5741 5745
5446 5455 5462 5470 5477 5484 5492 5501 5510 5520 5530 5539 5548 5558 5568 5577 5586 5595 5603 5611 5617 5623 5630 5636 5642 5650 5655 5660 5662 5669 5674 5679 5685 5689 5696 5701 5705 5708 5712 5716 5720 5725 5730
5434 5442 5449 5456 5463 5471 5478 5486 5495 5504 5514 5523 5532 5542 5551 5561 5570 5577 5585 5595 5601 5608 5615 5620 5627 5632 5640 5643 5646 5653 5658 5663 5668 5673 5679 5683 5686 5689 5695 5699 5704 5709 5713
5421 5428 5436 5443 5450 5456 5464 5472 5480 5489 5497 5507 5515 5524 5533 5542 5551 5559 5568 5577 5584 5591 5597 5601 5608 5614 5619 5624 5632 5635 5641 5648 5652 5656 5661 5665 5669 5674 5679 5684 5688 5692 5695
5407 5414 5421 5428 5435 5442 5449 5457 5465 5473 5481 5489 5497 5507 5516 5523 5533 5541 5549 5555 5563 5570 5577 5583 5590 5596 5602 5608 5614 5619 5624 5630 5634 5639 5643 5648 5653 5656 5660 5665 5670 5674 5678
5392 5399 5406 5413 5420 5427 5433 5441 5448 5456 5465 5472 5480 5487 5496 5504 5513 5521 5529 5535 5543 5550 5557 5564 5570 5576 5584 5591 5597 5600 5605 5612 5617 5619 5624 5629 5633 5638 5643 5647 5652 5656 5659